Weather History for Crestview, FL

Change the Weather History Date:

Thursday, February 28, 2013

  Actual Average Record
Temperature  
Mean Temperature 52 °F -  
Max Temperature 62 °F 68 °F 80 °F (1976)
Min Temperature 42 °F 42 °F 14 °F (2002)
Degree Days  
Heating Degree Days 13    
Growing Degree Days 2 (Base 50)    
Moisture  
Dew Point 34 °F    
Average Humidity 54    
Maximum Humidity 89    
Minimum Humidity 28    
Precipitation  
Precipitation 0.00 in - - ()
Sea Level Pressure  
Sea Level Pressure 30.02 in    
Wind  
Wind Speed 6 mph (NW)    
Max Wind Speed 15 mph    
Max Gust Speed 22 mph    
Visibility 10 miles    
Events      
Averages and records for this station are not official NWS values.
T = Trace of Precipitation, MM = Missing Value Source: NWS Daily Summary

Daily Weather History Graph

Daily Weather History Graph

Search for Another Location

Airport:

Trip Planner

Search our weather history database for the weather conditions in past years. The results will help you decide how hot, cold, wet, or windy it might be!

Date:

Astronomy

Feb. 28, 2013 Rise Set
Actual Time 6:13 AM CST 5:44 PM CST
Civil Twilight 5:49 AM CST 6:08 PM CST
Nautical Twilight 5:21 AM CST 6:36 PM CST
Astronomical Twilight 4:53 AM CST 7:04 PM CST
Moon 8:52 PM CST (2/28) 7:38 AM CST (2/28)
Length of Visible Light 12h 19m
Length of Day
11h 30m
Waning Gibbous, 90% of the Moon is Illuminated
Feb 28
Waning Gibbous
Mar 4
Last Quarter
Mar 11
New
Mar 19
First Quarter
Mar 27
Full

Hourly Weather History & Observations

Time (CST) Temp. Windchill Dew Point Humidity Pressure Visibility Wind Dir Wind Speed Gust Speed Precip Events Conditions
12:53 AM 42.1 °F - 39.0 °F 89% 29.99 in 9.0 mi Calm Calm - N/A   Clear
1:53 AM 50.0 °F - 43.0 °F 77% 29.98 in 10.0 mi WNW 5.8 mph - N/A   Clear
2:53 AM 48.9 °F - 42.1 °F 77% 29.98 in 10.0 mi NW 5.8 mph - N/A   Clear
3:53 AM 48.9 °F - 39.9 °F 71% 29.98 in 10.0 mi NNW 6.9 mph - N/A   Partly Cloudy
4:53 AM 46.9 °F - 39.0 °F 74% 30.01 in 10.0 mi NNW 3.5 mph - N/A   Clear
5:53 AM 45.0 °F 42.6 °F 37.0 °F 74% 30.03 in 10.0 mi North 4.6 mph - N/A   Clear
6:53 AM 43.0 °F - 37.0 °F 80% 30.06 in 10.0 mi Calm Calm - N/A   Clear
8:53 AM 51.1 °F - 32.0 °F 48% 30.06 in 10.0 mi NNW 9.2 mph - N/A   Clear
9:53 AM 54.0 °F - 30.0 °F 40% 30.06 in 10.0 mi NW 10.4 mph 19.6 mph N/A   Clear
10:53 AM 55.9 °F - 30.0 °F 37% 30.06 in 10.0 mi WNW 8.1 mph 17.3 mph N/A   Clear
11:53 AM 59.0 °F - 28.9 °F 32% 30.04 in 10.0 mi NW 13.8 mph 17.3 mph N/A   Clear
12:53 PM 57.9 °F - 28.0 °F 32% 30.01 in 10.0 mi West 11.5 mph 16.1 mph N/A   Clear
1:53 PM 62.1 °F - 28.0 °F 28% 29.99 in 10.0 mi West 15.0 mph 21.9 mph N/A   Clear
3:53 PM 57.9 °F - 28.9 °F 33% 29.99 in 10.0 mi NW 9.2 mph - N/A   Clear
4:53 PM 55.9 °F - 30.0 °F 37% 30.01 in 10.0 mi NW 8.1 mph - N/A   Clear
5:53 PM 53.1 °F - 32.0 °F 45% 30.01 in 10.0 mi NNW 6.9 mph - N/A   Clear
6:53 PM 51.1 °F - 33.1 °F 50% 30.02 in 10.0 mi NNW 4.6 mph - N/A   Clear
7:53 PM 50.0 °F - 33.1 °F 52% 30.03 in 10.0 mi NW 4.6 mph - N/A   Clear
8:53 PM 50.0 °F - 33.1 °F 52% 30.04 in 10.0 mi WNW 4.6 mph - N/A   Clear
9:53 PM 50.0 °F - 33.1 °F 52% 30.05 in 10.0 mi WNW 5.8 mph - N/A   Clear
10:53 PM 48.0 °F - 33.1 °F 56% 30.06 in 10.0 mi WNW 5.8 mph - N/A   Clear
11:53 PM 48.0 °F - 34.0 °F 58% 30.08 in 10.0 mi NNW 8.1 mph - N/A   Clear